Date,TemperatureHighF,TemperatureAvgF,TemperatureLowF,DewpointHighF,DewpointAvgF,DewpointLowF,HumidityHigh,HumidityAvg,HumidityLow,PressureMaxIn,PressureMinIn,WindSpeedMaxMPH,WindSpeedAvgMPH,GustSpeedMaxMPH,PrecipitationSumIn
2013-1-1,45,42,40,26,23,20,54,46,41,0.00,40.00,17,12,25,0.00
2013-1-2,40,34,30,22,14,10,50,43,37,0.00,40.00,20,12,27,0.00
2013-1-3,35,32,27,18,13,11,54,46,38,0.00,40.00,17,9,25,0.00
2013-1-4,41,37,33,20,18,16,55,46,38,0.00,40.00,21,13,32,0.00
2013-1-5,41,37,35,25,18,16,54,45,38,0.00,40.00,27,11,31,0.00
2013-1-6,52,43,40,37,28,20,82,57,30,0.00,40.00,19,7,25,0.00
2013-1-7,49,43,37,29,25,22,73,50,36,0.00,40.00,20,11,27,0.00
2013-1-8,51,44,37,36,32,28,82,64,48,0.00,40.00,13,6,18,0.00
2013-1-9,56,48,43,45,38,30,77,66,53,0.00,40.00,18,6,27,0.00
2013-1-10,51,46,41,36,27,24,60,46,37,0.00,40.00,19,11,29,0.00
2013-1-11,52,45,39,49,39,26,91,78,54,0.00,40.00,23,8,30,0.00
2013-1-12,51,47,44,46,43,42,91,87,73,0.00,40.00,12,5,18,0.00
2013-1-13,50,46,42,48,44,40,92,91,91,0.00,40.00,16,8,20,0.00
2013-1-14,59,53,48,55,49,40,91,88,78,0.00,40.00,20,9,24,0.00
2013-1-15,48,40,38,42,36,31,88,83,77,0.00,40.00,21,13,31,0.00
2013-1-16,44,41,38,41,37,34,91,88,85,0.00,40.00,22,11,33,0.00
2013-1-17,43,42,37,40,35,28,89,77,59,0.00,40.00,24,5,27,0.00
2013-1-18,40,36,33,33,18,6,89,50,25,0.00,40.00,28,11,40,0.00
2013-1-19,52,42,35,33,23,13,62,47,33,0.00,40.00,25,16,36,0.00
2013-1-20,58,48,39,29,24,12,55,40,28,0.00,40.00,28,19,36,0.00
2013-1-21,41,36,31,29,15,6,83,43,29,0.00,40.00,35,11,47,0.00
2013-1-22,32,24,20,22,2,-4,66,39,31,0.00,40.00,34,20,46,0.00
2013-1-23,25,21,17,1,-2,-4,40,36,31,0.00,40.00,26,15,34,0.00
2013-1-24,27,22,18,7,1,-2,59,40,31,0.00,40.00,32,18,40,0.00
2013-1-25,26,23,19,20,6,-1,85,50,35,0.00,40.00,20,9,29,0.00
2013-1-26,29,25,20,18,14,10,81,61,46,0.00,40.00,27,16,35,0.00
2013-1-27,30,24,22,12,10,9,61,56,46,0.00,40.00,15,9,18,0.00
2013-1-28,42,38,33,35,32,26,88,80,71,0.00,40.00,22,12,27,0.00
2013-1-29,55,46,42,44,40,36,90,79,61,0.00,40.00,16,7,23,0.00
2013-1-30,55,49,46,50,46,43,92,90,81,0.00,40.00,41,24,55,0.00
2013-1-31,52,43,33,50,17,6,92,36,26,0.00,40.00,35,22,50,0.00
2013-2-1,36,30,24,29,10,2,88,46,30,0.00,40.00,31,16,45,0.00
2013-2-2,31,26,20,26,8,2,91,47,37,0.00,40.00,20,11,28,0.00
2013-2-3,35,31,28,28,23,16,91,73,46,0.00,40.00,13,6,19,0.00
2013-2-4,38,31,27,23,12,6,66,44,37,0.00,40.00,37,14,53,0.00
2013-2-5,45,39,36,34,28,22,88,65,42,0.00,40.00,15,8,21,0.00
2013-2-6,43,38,33,33,24,18,88,61,39,0.00,40.00,24,10,35,0.00
2013-2-7,43,35,30,34,22,15,74,58,47,0.00,40.00,18,11,24,0.00
2013-2-8,45,42,35,43,38,31,92,87,71,0.00,40.00,35,21,47,0.00
2013-2-9,37,33,29,32,15,8,86,48,36,0.00,40.00,39,28,53,0.00
2013-2-10,39,31,24,30,11,4,69,42,32,0.00,40.00,23,10,29,0.00
2013-2-11,52,46,39,49,42,31,91,88,72,0.00,40.00,31,16,47,0.00
2013-2-12,53,47,41,48,26,20,89,45,29,0.00,40.00,23,12,33,0.00
2013-2-13,42,39,37,35,29,22,90,69,46,0.00,40.00,24,12,35,0.00
2013-2-14,48,40,35,36,32,25,90,74,43,0.00,40.00,23,9,28,0.00
2013-2-15,48,43,39,39,35,30,85,73,59,0.00,40.00,22,11,29,0.00
2013-2-16,44,38,31,34,30,-100,89,78,59,0.00,40.00,25,14,34,0.00
2013-2-17,34,31,27,27,9,2,88,41,31,0.00,40.00,33,25,49,0.00
2013-2-18,38,30,24,16,6,1,42,36,29,0.00,40.00,39,17,53,0.00
2013-2-19,48,42,37,45,34,18,91,73,45,0.00,40.00,25,16,34,0.00
2013-2-20,42,35,28,32,12,-100,67,40,33,0.00,40.00,36,20,46,0.00
2013-2-21,36,32,26,14,10,5,45,39,35,0.00,40.00,31,21,46,0.00
2013-2-22,38,33,28,35,22,11,90,64,45,0.00,40.00,18,10,26,0.00
2013-2-23,48,44,37,45,41,34,91,91,90,0.00,40.00,19,11,29,0.00
2013-2-24,49,42,36,40,30,16,91,66,36,0.00,40.00,32,17,41,0.00
2013-2-25,46,38,32,30,20,16,73,49,35,0.00,40.00,23,11,32,0.00
2013-2-26,47,40,34,43,35,29,92,82,69,0.00,40.00,27,13,39,0.00
2013-2-27,56,49,44,48,40,30,92,73,40,0.00,40.00,20,11,32,0.00
2013-2-28,47,44,40,39,32,23,89,66,40,0.00,40.00,17,7,29,0.00
2013-3-1,45,41,37,30,27,24,73,57,45,0.00,40.00,19,12,26,0.00
2013-3-2,43,39,35,25,21,17,58,48,39,0.00,40.00,26,14,32,0.00
2013-3-3,39,36,33,20,17,13,53,47,39,0.00,40.00,26,19,36,0.00
2013-3-4,41,36,32,19,17,15,50,46,41,0.00,40.00,31,22,44,0.00
2013-3-5,46,38,32,30,21,17,67,51,38,0.00,40.00,24,12,32,0.00
2013-3-6,42,40,36,39,36,29,91,84,66,0.00,40.00,55,34,78,0.00
2013-3-7,49,41,35,33,27,24,89,60,38,0.00,40.00,35,24,47,0.00
2013-3-8,41,38,33,35,30,25,86,75,58,0.00,40.00,33,24,44,0.00
2013-3-9,65,46,36,28,23,19,58,43,22,0.00,40.00,22,11,28,0.00
2013-3-10,46,42,37,39,35,28,88,76,56,0.00,40.00,13,7,20,0.00
2013-3-11,52,46,42,47,42,39,90,86,72,0.00,40.00,25,11,35,0.00
2013-3-12,52,50,46,49,46,34,91,87,66,0.00,40.00,35,21,51,0.00
2013-3-13,57,43,40,37,25,-100,80,58,29,0.00,40.00,20,12,37,0.00
2013-3-14,45,38,34,20,12,-100,50,39,31,0.00,40.00,26,19,39,0.00
2013-3-15,52,42,33,35,20,11,74,42,28,0.00,40.00,23,14,38,0.00
2013-3-16,45,42,39,36,33,29,86,70,58,0.00,40.00,24,12,30,0.00
2013-3-17,43,39,35,35,26,19,89,63,40,0.00,40.00,18,11,24,0.00
2013-3-18,50,40,36,47,30,18,90,67,45,0.00,40.00,23,15,44,0.00
2013-3-19,57,46,42,46,39,24,91,79,38,0.00,40.00,25,11,36,0.00
2013-3-20,54,44,35,32,20,12,63,40,21,0.00,40.00,24,14,34,0.00
2013-3-21,44,36,32,34,22,-100,89,60,35,0.00,40.00,28,16,37,0.00
2013-3-22,44,37,31,21,16,9,53,43,34,0.00,40.00,23,16,34,0.00
2013-3-23,51,41,34,26,21,18,59,46,35,0.00,40.00,23,13,32,0.00
2013-3-24,44,40,36,25,22,19,63,49,37,0.00,40.00,11,8,16,0.00
2013-3-25,39,39,39,29,29,29,69,69,69,0.00,40.00,14,14,22,0.00
2013-3-26,54,43,36,35,30,24,90,64,34,0.00,40.00,19,11,27,0.00
2013-3-27,54,45,39,34,29,23,78,55,32,0.00,40.00,23,14,34,0.00
2013-3-28,51,44,40,31,29,27,67,56,43,0.00,40.00,23,15,31,0.00
2013-3-29,56,47,40,35,30,24,69,52,34,0.00,40.00,18,11,28,0.00
2013-3-30,65,50,40,36,31,22,83,52,23,0.00,40.00,14,8,22,0.00
2013-3-31,52,48,44,49,42,36,90,81,58,0.00,40.00,23,14,36,0.00
2013-4-1,57,52,46,48,42,21,88,70,41,0.00,40.00,29,13,37,0.00
2013-4-2,51,44,38,24,16,14,43,32,25,0.00,40.00,27,15,37,0.00
2013-4-3,54,44,37,19,15,12,39,31,24,0.00,40.00,28,16,38,0.00
2013-4-4,45,41,34,32,20,12,67,43,30,0.00,40.00,18,12,26,0.00
2013-4-5,62,48,39,46,33,-100,91,64,22,0.00,40.00,17,11,26,0.00
2013-4-6,50,44,40,29,21,-100,57,42,27,0.00,40.00,21,12,28,0.00
2013-4-7,52,47,42,45,38,28,81,71,56,0.00,40.00,30,15,41,0.00
2013-4-8,66,56,49,50,47,45,87,74,48,0.00,40.00,20,11,29,0.00
2013-4-9,84,64,54,52,50,47,87,62,30,0.00,40.00,20,10,29,0.00
2013-4-10,85,68,56,54,52,49,82,60,31,0.00,40.00,20,11,32,0.00
2013-4-11,71,56,48,55,50,46,91,82,54,0.00,40.00,24,14,35,0.00
2013-4-12,59,53,48,56,50,46,91,91,90,0.00,40.00,31,17,43,0.00
2013-4-13,70,53,47,47,41,30,90,67,27,0.00,40.00,24,12,29,0.00
2013-4-14,69,57,47,47,39,30,89,57,26,0.00,40.00,21,8,27,0.00
2013-4-15,54,51,49,46,43,38,82,73,60,0.00,40.00,20,11,28,0.00
2013-4-16,60,55,50,52,48,44,88,78,66,0.00,40.00,26,15,35,0.00
2013-4-17,72,58,53,57,49,41,89,72,53,0.00,40.00,21,10,31,0.00
2013-4-18,62,56,53,54,50,40,90,80,59,0.00,40.00,17,12,30,0.00
2013-4-19,63,58,56,60,55,53,90,89,82,0.00,40.00,39,22,52,0.00
2013-4-20,60,54,48,57,36,24,90,56,29,0.00,40.00,26,16,36,0.00
2013-4-21,53,46,42,25,22,17,46,38,31,0.00,40.00,20,13,24,0.00
2013-4-22,49,47,44,43,35,23,84,65,43,0.00,40.00,32,22,41,0.00
2013-4-23,49,46,45,44,40,-100,88,82,78,0.00,40.00,31,20,41,0.00
2013-4-24,55,50,45,51,46,42,90,86,79,0.00,40.00,32,16,45,0.00
2013-4-25,64,56,48,51,33,24,87,45,22,0.00,40.00,33,16,41,0.00
2013-4-26,71,58,48,46,36,26,85,50,22,0.00,40.00,16,8,22,0.00
2013-4-27,61,55,50,46,40,36,80,58,41,0.00,40.00,17,7,20,0.00
2013-4-28,64,57,50,51,39,-100,90,59,26,0.00,40.00,12,6,17,0.00
2013-4-29,56,54,53,53,51,48,90,88,76,0.00,40.00,17,11,24,0.00
2013-4-30,57,54,53,51,48,45,90,79,66,0.00,40.00,22,15,32,0.00
2013-5-1,55,52,48,46,45,42,88,77,63,0.00,40.00,26,17,35,0.00
2013-5-2,57,53,48,47,43,36,89,70,47,0.00,40.00,18,12,23,0.00
2013-5-3,54,52,49,47,41,35,86,66,51,0.00,40.00,27,16,36,0.00
2013-5-4,55,51,47,45,42,39,89,72,62,0.00,40.00,24,17,31,0.00
2013-5-5,52,49,47,46,40,36,87,71,64,0.00,40.00,28,18,34,0.00
2013-5-6,53,52,50,50,48,46,90,89,88,0.00,40.00,26,18,33,0.00
2013-5-7,58,54,51,55,51,48,90,90,89,0.00,40.00,25,16,30,0.00
2013-5-8,65,59,55,58,53,49,90,81,59,0.00,40.00,21,8,29,0.00
2013-5-9,71,61,56,56,53,47,90,76,43,0.00,40.00,16,7,22,0.00
2013-5-10,77,65,60,58,52,-100,87,67,42,0.00,40.00,21,9,30,0.00
2013-5-11,67,63,60,61,58,54,90,84,72,0.00,40.00,30,14,43,0.00
2013-5-12,68,62,58,59,42,-100,90,56,22,0.00,40.00,26,12,38,0.00
2013-5-13,62,56,51,29,25,22,40,30,24,0.00,40.00,27,14,37,0.00
2013-5-14,62,54,46,43,30,25,65,40,25,0.00,40.00,17,12,26,0.00
2013-5-15,65,60,55,57,50,44,82,71,64,0.00,40.00,23,14,37,0.00
2013-5-16,79,66,62,60,34,-100,82,56,26,0.00,40.00,14,7,20,0.00
2013-5-17,82,68,61,57,45,-100,71,49,25,0.00,40.00,18,10,24,0.00
2013-5-18,67,62,60,57,53,46,90,73,56,0.00,40.00,14,8,23,0.00
2013-5-19,62,60,58,58,57,56,90,89,83,0.00,40.00,20,12,28,0.00
2013-5-20,74,66,61,64,60,58,90,81,61,0.00,40.00,20,11,28,0.00
2013-5-21,74,68,63,66,62,60,90,81,66,0.00,40.00,21,10,29,0.00
2013-5-22,76,69,65,66,62,60,89,81,63,0.00,40.00,27,13,36,0.00
2013-5-23,69,66,63,63,61,60,90,87,78,0.00,40.00,31,20,40,0.00
2013-5-24,68,61,52,64,53,34,90,76,48,0.00,40.00,36,16,46,0.00
2013-5-25,64,57,50,37,32,29,58,40,27,0.00,40.00,32,23,48,0.00
2013-5-26,71,62,55,48,34,29,64,35,25,0.00,40.00,22,13,33,0.00
2013-5-27,73,63,54,54,43,29,80,52,21,0.00,40.00,13,5,21,0.00
2013-5-28,64,62,60,57,54,50,90,77,65,0.00,40.00,28,12,36,0.00
2013-5-29,78,69,61,60,58,53,87,69,46,0.00,40.00,20,10,36,0.00
2013-5-30,82,72,65,63,60,58,85,69,47,0.00,40.00,13,8,18,0.00
2013-5-31,80,72,65,63,61,59,88,71,52,0.00,40.00,25,11,36,0.00
2013-6-1,78,70,66,65,62,60,88,77,60,0.00,40.00,28,15,41,0.00
2013-6-2,73,69,65,66,60,-100,89,76,62,0.00,40.00,29,16,42,0.00
2013-6-3,71,67,64,67,64,61,90,90,86,0.00,40.00,18,6,28,0.00
2013-6-4,76,69,63,66,48,37,89,51,27,0.00,40.00,20,11,27,0.00
2013-6-5,72,66,61,60,51,39,88,62,32,0.00,40.00,15,6,18,0.00
2013-6-6,71,66,61,61,59,56,89,78,63,0.00,40.00,17,9,24,0.00
2013-6-7,70,67,65,67,64,61,90,89,86,0.00,40.00,26,12,34,0.00
2013-6-8,73,68,63,66,63,59,90,83,68,0.00,40.00,26,10,40,0.00
2013-6-9,80,71,66,65,59,48,88,68,35,0.00,40.00,11,5,16,0.00
2013-6-10,70,68,67,67,65,63,90,89,86,0.00,40.00,28,14,39,0.00
2013-6-11,85,75,67,67,62,58,89,68,42,0.00,40.00,24,13,38,0.00
2013-6-12,87,78,71,64,62,60,75,58,44,0.00,40.00,16,10,25,0.00
2013-6-13,88,70,65,68,64,57,90,80,36,0.00,40.00,22,13,32,0.00
2013-6-14,76,64,58,66,54,43,88,72,32,0.00,40.00,31,16,39,0.00
2013-6-15,83,69,62,62,57,49,89,69,31,0.00,40.00,18,7,26,0.00
2013-6-16,84,74,67,67,62,59,90,70,44,0.00,40.00,29,8,44,0.00
2013-6-17,84,74,69,68,66,57,90,77,42,0.00,40.00,19,7,28,0.00
2013-6-18,74,70,65,68,65,60,90,84,70,0.00,40.00,26,10,31,0.00
2013-6-19,70,66,65,62,57,48,89,73,47,0.00,40.00,20,11,23,0.00
2013-6-20,77,67,63,57,54,44,77,65,33,0.00,40.00,5,3,10,0.00
2013-6-22,78,73,70,63,58,55,74,61,50,0.00,40.00,16,10,25,0.00
2013-6-23,77,73,69,70,66,57,90,78,63,0.00,40.00,28,12,41,0.00
2013-6-25,91,82,73,71,67,63,88,65,41,0.00,40.00,12,7,19,0.00
2013-6-26,84,79,74,71,67,62,82,67,50,0.00,40.00,19,9,31,0.00
2013-6-27,79,76,73,71,69,66,90,79,65,0.00,40.00,29,13,42,0.00
2013-6-28,83,76,71,72,68,66,89,78,58,0.00,40.00,22,13,35,0.00
2013-6-29,79,74,70,70,67,64,90,81,66,0.00,40.00,25,13,35,0.00
2013-6-30,77,73,71,70,68,67,89,86,71,0.00,40.00,22,13,32,0.00
2013-7-1,76,72,71,70,68,67,91,89,76,0.00,40.00,22,15,33,0.00
2013-7-2,76,73,71,69,68,68,89,85,77,0.00,40.00,27,17,38,0.00
2013-7-3,78,74,70,72,69,67,90,86,77,0.00,40.00,25,13,37,0.00
2013-7-4,82,76,71,71,69,67,88,79,61,0.00,40.00,22,12,33,0.00
2013-7-5,85,77,71,71,68,66,88,76,54,0.00,40.00,22,11,30,0.00
2013-7-6,89,79,74,72,70,66,88,75,50,0.00,40.00,17,10,22,0.00
2013-7-7,89,79,74,72,69,66,88,73,48,0.00,40.00,16,10,22,0.00
2013-7-8,86,79,75,70,64,-100,85,65,47,0.00,40.00,15,6,22,0.00
2013-7-9,81,76,73,72,70,68,89,84,70,0.00,40.00,14,-14,18,0.00
2013-7-12,72,70,68,69,66,65,90,90,89,0.00,40.00,23,11,31,0.00
2013-7-13,84,75,67,74,69,64,90,82,64,0.00,40.00,21,7,31,0.00
2013-7-14,88,77,71,77,71,67,89,82,51,0.00,40.00,8,5,14,0.00
2013-7-15,89,79,73,73,70,67,89,74,49,0.00,40.00,11,6,18,0.00
2013-7-16,88,83,80,74,67,64,80,60,48,0.00,40.00,11,4,17,0.00
2013-7-17,86,80,78,74,70,66,81,72,51,0.00,40.00,9,3,13,0.00
2013-7-18,93,84,77,74,72,68,86,69,46,0.00,40.00,15,6,24,0.00
2013-7-19,90,81,76,74,72,69,88,75,54,0.00,40.00,23,10,33,0.00
2013-7-20,92,82,76,75,70,-100,88,70,47,0.00,40.00,20,12,27,0.00
2013-7-21,88,78,73,74,70,67,89,76,50,0.00,40.00,24,8,38,0.00
2013-7-22,84,78,73,73,71,67,89,79,56,0.00,40.00,16,5,26,0.00
2013-7-23,88,79,73,75,70,66,90,76,51,0.00,40.00,15,8,24,0.00
2013-7-24,89,80,74,70,67,63,85,66,43,0.00,40.00,17,7,23,0.00
2013-7-25,77,69,66,67,61,55,85,74,60,0.00,40.00,26,17,39,0.00
2013-7-26,81,70,65,65,61,56,83,74,45,0.00,40.00,19,11,24,0.00
2013-7-27,80,74,69,68,65,59,89,75,49,0.00,40.00,14,6,21,0.00
2013-7-28,80,74,71,70,68,66,89,82,68,0.00,40.00,21,10,27,0.00
2013-7-29,83,75,71,70,67,61,90,77,48,0.00,40.00,15,5,22,0.00